User: anonymous   Login
Location: Albany
(35.0000°S, 118.0000°E)
Time: 21:52:14
(UTC-04:00)
Language:

Centaur D-1AR AC-48 - Orbit

View from above orbital plane
View from above orbital plane
View from above satellite
View from above satellite

Ground track
Ground track

The orbit data is extracted from the following two-line orbital elements,

1 10779U 78035B   15242.46959155 -.00000069  00000-0 -32960-3 0  9995
2 10779 021.8084 298.4166 7176384 326.7933 200.2858 02.22638657304052
Epoch (UTC): 30 August 2015 11:16:12
Eccentricity: 0.7176384
inclination: 21.8084°
perigee height: 617 km
apogee height: 36175 km
right ascension of ascending node: 298.4166°
argument of perigee: 326.7933°
revolutions per day: 2.22638657
mean anomaly at epoch: 200.2858°
orbit number at epoch: 30405

The dashed part of the orbit path shows where the satellite is in the earth's shadow,  

DLR